Las Cruces, NM

4:44 PM MDT on March 30, 2017 (GMT -0600)
Las Cruces International

Weather History for KLRU - January, 2013

Change the Weather History Date:

Tuesday, January 22, 2013

  Actual Average Record
Temperature  
Mean Temperature 47 °F -  
Max Temperature 64 °F 55 °F 69 °F (2011)
Min Temperature 30 °F 31 °F 19 °F (2015)
Degree Days  
Heating Degree Days 18    
Moisture  
Dew Point 11 °F    
Average Humidity 25    
Maximum Humidity 38    
Minimum Humidity 13    
Precipitation  
Precipitation 0.00 in - - ()
Sea Level Pressure  
Sea Level Pressure 30.25 in    
Wind  
Wind Speed 5 mph (North)    
Max Wind Speed 10 mph    
Max Gust Speed -    
Visibility 10 miles    
Events      
Averages and records for this station are not official NWS values.
T = Trace of Precipitation, MM = Missing Value Source: NWS Daily Summary

Daily Weather History Graph

Daily Weather History Graph

Search for Another Location

Airport or City:

Trip Planner

Search our weather history database for the weather conditions in past years. The results will help you decide how hot, cold, wet, or windy it might be!

Date:

Astronomy

Jan. 22, 2013 Rise Set
Actual Time 7:06 AM MST 5:32 PM MST
Civil Twilight 6:40 AM MST 5:58 PM MST
Nautical Twilight 6:10 AM MST 6:28 PM MST
Astronomical Twilight 5:41 AM MST 6:57 PM MST
Moon 1:59 PM MST (1/22) 3:28 AM MST (1/22)
Length of Visible Light 11h 17m
Length of Day
10h 25m
Waxing Gibbous, 83% of the Moon is Illuminated
Jan 22
Waxing Gibbous
Jan 26
Full
Feb 3
Last Quarter
Feb 10
New
Feb 17
First Quarter

Hourly Weather History & Observations

Time (MST) Temp. Windchill Dew Point Humidity Pressure Visibility Wind Dir Wind Speed Gust Speed Precip Events Conditions
12:15 AM 39.6 °F 34.0 °F 9.5 °F 29% 30.23 in 10.0 mi NW 8.1 mph - N/A   Clear
12:55 AM 39.2 °F 33.6 °F 9.5 °F 29% 30.23 in 10.0 mi North 8.1 mph - N/A   Clear
1:15 AM 39.7 °F 33.7 °F 9.5 °F 29% 30.23 in 10.0 mi NNW 9.2 mph - N/A   Clear
1:35 AM 41.2 °F 36.0 °F 9.9 °F 28% 30.23 in 10.0 mi NNW 8.1 mph - N/A   Clear
1:55 AM 40.5 °F 35.1 °F 9.5 °F 28% 30.23 in 10.0 mi NNW 8.1 mph - N/A   Clear
2:15 AM 40.6 °F 36.7 °F 9.5 °F 28% 30.23 in 10.0 mi NNW 5.8 mph - N/A   Clear
2:35 AM 40.6 °F 36.0 °F 9.1 °F 27% 30.24 in 10.0 mi NNW 6.9 mph - N/A   Clear
2:55 AM 40.3 °F 34.4 °F 9.1 °F 28% 30.23 in 10.0 mi NNW 9.2 mph - N/A   Clear
3:15 AM 41.4 °F 38.4 °F 9.1 °F 27% 30.24 in 10.0 mi NNW 4.6 mph - N/A   Clear
3:35 AM 40.6 °F 36.7 °F 9.0 °F 27% 30.24 in 10.0 mi NW 5.8 mph - N/A   Clear
3:55 AM 39.0 °F 33.4 °F 8.6 °F 29% 30.24 in 10.0 mi North 8.1 mph - N/A   Clear
4:15 AM 39.2 °F 34.2 °F 9.3 °F 29% 30.24 in 10.0 mi North 6.9 mph - N/A   Clear
4:35 AM 40.3 °F - 9.0 °F 28% 30.24 in 10.0 mi Calm Calm - N/A   Clear
4:55 AM 39.0 °F - 8.6 °F 29% 30.24 in 10.0 mi Calm Calm - N/A   Clear
5:15 AM 38.8 °F 34.6 °F 8.4 °F 28% 30.25 in 10.0 mi NNW 5.8 mph - N/A   Clear
5:35 AM 33.3 °F - 7.7 °F 34% 30.25 in 10.0 mi Calm Calm - N/A   Clear
5:55 AM 31.6 °F 27.0 °F 7.7 °F 37% 30.25 in 10.0 mi NNW 4.6 mph - N/A   Clear
6:15 AM 30.9 °F 24.3 °F 8.1 °F 38% 30.25 in 10.0 mi North 6.9 mph - N/A   Clear
6:35 AM 32.9 °F 25.9 °F 8.1 °F 35% 30.25 in 10.0 mi North 8.1 mph - N/A   Clear
6:55 AM 36.0 °F 30.3 °F 9.0 °F 33% 30.26 in 10.0 mi North 6.9 mph - N/A   Clear
7:15 AM 36.7 °F 29.9 °F 10.4 °F 34% 30.26 in 10.0 mi North 9.2 mph - N/A   Clear
7:35 AM 40.6 °F 34.3 °F 11.8 °F 31% 30.27 in 10.0 mi North 10.4 mph - N/A   Clear
7:55 AM 35.4 °F - 9.7 °F 34% 30.28 in 10.0 mi Calm Calm - N/A   Clear
8:15 AM 35.2 °F - 9.5 °F 34% 30.28 in 10.0 mi Calm Calm - N/A   Clear
8:35 AM 37.4 °F - 10.4 °F 33% 30.29 in 10.0 mi Calm Calm - N/A   Clear
8:55 AM 40.1 °F 36.9 °F 11.3 °F 31% 30.29 in 10.0 mi ENE 4.6 mph - N/A   Clear
9:15 AM 42.4 °F 38.8 °F 11.8 °F 29% 30.30 in 10.0 mi East 5.8 mph - N/A   Clear
9:35 AM 44.8 °F 43.3 °F 12.4 °F 27% 30.31 in 10.0 mi East 3.5 mph - N/A   Clear
9:55 AM 48.6 °F - 13.1 °F 24% 30.31 in 10.0 mi Calm Calm - N/A   Clear
10:15 AM 50.4 °F - 13.8 °F 23% 30.31 in 10.0 mi East 4.6 mph - N/A   Clear
10:35 AM 51.4 °F - 13.8 °F 22% 30.31 in 10.0 mi ENE 5.8 mph - N/A   Clear
10:55 AM 53.2 °F - 13.8 °F 21% 30.31 in 10.0 mi NNE 4.6 mph - N/A   Clear
11:15 AM 55.2 °F - 13.1 °F 19% 30.30 in 10.0 mi Calm Calm - N/A   Clear
11:35 AM 57.0 °F - 12.7 °F 17% 30.29 in 10.0 mi NNE 3.5 mph - N/A   Clear
11:55 AM 58.5 °F - 12.4 °F 16% 30.28 in 10.0 mi ENE 3.5 mph - N/A   Clear
12:15 PM 59.4 °F - 12.2 °F 16% 30.27 in 10.0 mi North 5.8 mph - N/A   Clear
12:35 PM 59.7 °F - 11.7 °F 15% 30.26 in 10.0 mi NNE 3.5 mph - N/A   Clear
12:55 PM 61.5 °F - 12.4 °F 15% 30.25 in 10.0 mi NE 4.6 mph - N/A   Clear
1:15 PM 61.5 °F - 12.2 °F 14% 30.25 in 10.0 mi Calm Calm - N/A   Clear
1:35 PM 62.8 °F - 12.4 °F 14% 30.24 in 10.0 mi ENE 5.8 mph - N/A   Clear
1:55 PM 62.6 °F - 12.2 °F 14% 30.24 in 10.0 mi Calm Calm - N/A   Clear
2:15 PM 63.1 °F - 12.2 °F 14% 30.23 in 10.0 mi Calm Calm - N/A   Clear
2:35 PM 64.0 °F - 12.4 °F 13% 30.23 in 10.0 mi NNW 4.6 mph - N/A   Clear
2:55 PM 64.2 °F - 12.7 °F 13% 30.23 in 10.0 mi Calm Calm - N/A   Clear
3:15 PM 64.6 °F - 12.7 °F 13% 30.23 in 10.0 mi NW 3.5 mph - N/A   Clear
3:35 PM 64.9 °F - 12.4 °F 13% 30.23 in 10.0 mi Calm Calm - N/A   Clear
3:55 PM 64.6 °F - 12.2 °F 13% 30.22 in 10.0 mi Calm Calm - N/A   Clear
4:15 PM 64.9 °F - 12.6 °F 13% 30.21 in 10.0 mi SW 5.8 mph - N/A   Clear
4:35 PM 64.4 °F - 12.7 °F 13% 30.21 in 10.0 mi WSW 4.6 mph - N/A   Clear
4:55 PM 63.9 °F - 12.7 °F 14% 30.21 in 10.0 mi Calm Calm - N/A   Clear
5:15 PM 63.0 °F - 12.4 °F 14% 30.21 in 10.0 mi Calm Calm - N/A   Clear
5:35 PM 59.7 °F - 11.7 °F 15% 30.22 in 10.0 mi Calm Calm - N/A   Clear
5:55 PM 53.1 °F - 10.9 °F 19% 30.23 in 10.0 mi Calm Calm - N/A   Clear
6:15 PM 49.3 °F - 10.4 °F 21% 30.23 in 10.0 mi WSW 3.5 mph - N/A   Clear
6:35 PM 46.2 °F 45.0 °F 10.4 °F 23% 30.23 in 10.0 mi West 3.5 mph - N/A   Clear
6:55 PM 44.6 °F 42.2 °F 9.9 °F 24% 30.24 in 10.0 mi West 4.6 mph - N/A   Clear
7:15 PM 43.7 °F 42.1 °F 10.2 °F 26% 30.24 in 10.0 mi WNW 3.5 mph - N/A   Clear
7:35 PM 43.3 °F - 10.0 °F 26% 30.24 in 10.0 mi Calm Calm - N/A   Clear
7:55 PM 43.5 °F - 10.9 °F 27% 30.25 in 10.0 mi Calm Calm - N/A   Clear
8:15 PM 42.8 °F 41.1 °F 11.3 °F 28% 30.25 in 10.0 mi NNW 3.5 mph - N/A   Clear
8:35 PM 43.7 °F - 11.8 °F 27% 30.26 in 10.0 mi Calm Calm - N/A   Clear
8:55 PM 43.2 °F - 12.0 °F 28% 30.27 in 10.0 mi Calm Calm - N/A   Clear
9:15 PM 41.4 °F 39.4 °F 11.7 °F 30% 30.27 in 10.0 mi North 3.5 mph - N/A   Clear
9:55 PM 40.3 °F 37.1 °F 11.8 °F 31% 30.27 in 10.0 mi NNW 4.6 mph - N/A   Clear
10:15 PM 39.4 °F 37.2 °F 11.7 °F 32% 30.28 in 10.0 mi North 3.5 mph - N/A   Clear
10:35 PM 40.5 °F - 12.2 °F 32% 30.28 in 10.0 mi Calm Calm - N/A   Clear
10:55 PM 39.6 °F - 12.2 °F 33% 30.28 in 10.0 mi Calm Calm - N/A   Clear
11:15 PM 38.3 °F 33.9 °F 11.8 °F 34% 30.28 in 10.0 mi NNW 5.8 mph - N/A   Clear
11:35 PM 38.3 °F 33.2 °F 12.2 °F 34% 30.28 in 10.0 mi NW 6.9 mph - N/A   Clear
11:55 PM 38.5 °F 36.1 °F 12.4 °F 34% 30.29 in 10.0 mi NNW 3.5 mph - N/A   Clear